"Pseudo-MPEC" for C3ZR432

Created 2020 Nov 23 1:07:14 UT using Find_Orb

Click here for an explanation of pseudo-MPECs

 
 Astrometry: 
     C3ZR432  C2020 11 21.06087618 59 56.65 +47 16 23.3    ~BL2M 19.61GVNEOCPG96
     C3ZR432  C2020 11 21.06623518 59 56.37 +47 16 49.8    ~BL2M 20.00GVNEOCPG96
     C3ZR432  C2020 11 21.07159018 59 56.09 +47 17 16.3    ~BL2M 19.90GVNEOCPG96
     C3ZR432  C2020 11 21.07695318 59 55.82 +47 17 42.2    ~BL2M 20.10GVNEOCPG96
     C3ZR432 mC2020 11 21.10183418 59 54.60 +47 19 44.1    ~BL2b 20.01GVNEOCPI52
     C3ZR432 mC2020 11 21.10242718 59 54.56 +47 19 46.7    ~BL2b       VNEOCPI52
     C3ZR432 mC2020 11 21.10302118 59 54.61 +47 19 50.1    ~BL2b       VNEOCPI52
     C3ZR432 mC2020 11 21.12650118 59 53.57 +47 21 43.7    ~BL3M       VNEOCPI52
     C3ZR432 mC2020 11 21.12726818 59 53.44 +47 21 47.4    ~BL3M 20.39GVNEOCPI52
     C3ZR432 mC2020 11 21.12803518 59 53.44 +47 21 51.1    ~BL3M 20.85GVNEOCPI52
     C3ZR432 1C2020 11 21.72483 18 59 30.49 +48 10 58.0    ~BLJ7 21.1 VVNEOCP033
     C3ZR432 1C2020 11 21.72633 18 59 30.41 +48 11 04.9    ~BLJ7 20.9 VVNEOCP033
     C3ZR432 1C2020 11 21.72784 18 59 30.41 +48 11 12.2    ~BLJ7 21.3 VVNEOCP033
     C3ZR432 1C2020 11 21.72955 18 59 30.31 +48 11 20.6    ~BLJ7 21.3 VVNEOCP033
     C3ZR432 KC2020 11 21l'cU`bOIb]-uLxOT2lC$ga/P2:VX`][Imu@/JCq-Pl4(BB:heqG-587
     C3ZR432 KC2020 11 212V]EJmWd+83R3-a8PYEZ%3bGUWjuNk(:G?9KAstrometrygq5r/$587
     C3ZR432 KC2020 11 21C0e[:xZO$H7%WHIRP:4k;T*fA!UmeXqbB\w651e9YW7%hi0\$!x2587
     C3ZR432 bC2020 11 21_dS;tRqhN-edBvP[0-TGfvjvXHQVZkug,ogf!8.OFM9h#C$3*24KL01
     C3ZR432 bC2020 11 21.%!@'-QbxL)^uKJvc2%c_r,bp0PvdK*C'$K4Ug2'ppVut,_`eHE^L01
     C3ZR432 bC2020 11 21TaTk.:VZredacted;xy;#$OXka:1J7_WvEByDZ-_4QC@aW?:rv?GL01
     C3ZR432 bC2020 11 21T0bnLMsfPn1Lm/-UHA[yU:OtU!Jt%^dM1kF)WPwB#EQ0+5S$jnS?L01
     C3ZR432 1C2020 11 21.76746 18 59 28.53 +48 14 23.6    ~BLJ7 20.5 VVNEOCP033
     C3ZR432 1C2020 11 21.76896 18 59 28.49 +48 14 30.6    ~BLJ7 20.5 VVNEOCP033
     C3ZR432 bC2020 11 21#Uiw1n[vvFAvOyMMAPLM:LMyaZ#+(1J+@:\Qb'^dI[nbuClGp,swL01
     C3ZR432 KC2020 11 21+42cs:NDH^\y[9?^Ng`6b)(/T4\+sJ=6C2g2clickf%H@#U?B9Gc204
     C3ZR432 KC2020 11 21S]K6eZjSpv@mqc%5+kVd:vD=+c9DdwG'3f;Xhere?1.+!qH[`SLp204
     C3ZR432 KC2020 11 22.05749918 59 16.59 +48 38 08.7    ~BM1b 20.57GVNEOCPI52
     C3ZR432 KC2020 11 22.05875818 59 16.47 +48 38 14.3    ~BM1b       VNEOCPI52
     C3ZR432 KC2020 11 22.06001618 59 16.47 +48 38 21.0    ~BM1b 20.18GVNEOCPI52
     C3ZR432 KC2020 11 22.74695018 58 48.37 +49 33 21.7    ~BMIb 20.5 GVNEOCPI93
     C3ZR432 KC2020 11 22.75378718 58 48.03 +49 33 53.8    ~BMIb 20.1 GVNEOCPI93
     C3ZR432 KC2020 11 22.76062218 58 47.64 +49 34 25.9    ~BMIb 20.0 GVNEOCPI93
     C3ZR432 KC2020 11 23@lb7Q*uD`Llg:X\rRmZ,x[#Gp=Tw4L=Zi/2I9amT4_u(rX$KZ0$oH36
     C3ZR432 KC2020 11 23g%f*Ycr`ZSOC?R7Ekn_fv1xP5JdE(Z2-p@=iZQvcuo;2O;WDTwteH36
     C3ZR432 KC2020 11 23vKT5S(IeiIfor5c@$DrexplanationT-GII3yjwrgq7=vE=2xy5=H36

Station data:
(033) Karl Schwarzschild Observatory, Tautenburg  (N50.980140 E11.711240)
   Germany. 1.3-m Schmidt.
(204) Schiaparelli Observatory  (N45.867933 E8.770800)  Italy.  Observer L.
   Buzzi. 0.60-m f/4.64 Newtonian + CCD.
(587) Sormano  (N45.882949 E9.229180)  Italy.  Observers F. Manca, A. Testa.
   Measurer F. Manca. 0.5-m + CCD.
(G96) Mt. Lemmon Survey  (N32.442754 W110.788720)  US/Arizona.  Observers T.
   A. Pruyne, B. M. Africano, E. J. Christensen, G. A. Farneth, D. C. Fuls,
   A. R. Gibbs, A. D. Grauer, H. Gröller, J. A. Johnson, R. A. Kowalski, S.
   M. Larson, G. J. Leonard, D. Rankin, R. L. Seaman, F. C. Shelly. 1.5-m
   reflector + 10K CCD.
(H36) Sandlot Observatory, Scranton  (N38.797693 W95.706400)  US/Kansas.
   Observer G. Hug. 0.56-m reflector + CCD.
(I52) Steward Observatory, Mt. Lemmon Station  (N32.442547 W110.788920)
   US/Arizona.  Observers T. A. Pruyne, B. M. Africano, E. J. Christensen, G.
   A. Farneth, D. C. Fuls, A. R. Gibbs, A. D. Grauer, H. Gröller, J. A.
   Johnson, R. A. Kowalski, S. M. Larson, G. J. Leonard, D. Rankin, R. L.
   Seaman, F. C. Shelly. 1.0-m reflector + CCD.
(I93) St Pardon de Conques  (N44.558710 W0.203000)  France.  Observer F.
   Losse. 0.40-m f/3.7 reflector + CCD.
(L01) Višnjan Observatory, Tičan  (N45.290900 E13.749300)  Croatia.
   Observers K. Korlević, E. Pettarin. Measurer E. Pettarin. 1.0-m f/2.9
   reflector + CCD.

Orbital elements:  C3ZR432
   Perihelion 2020 Nov 5.501219 +/- 0.0128 TT = 12:01:45 (JD 2459159.001219)
Epoch 2020 Nov 23.0 TT = JDT 2459176.5   Earth MOID: 0.0030   AutoNEOCP
M   3.98041430 +/- 0.18             (J2000 ecliptic)
n   0.22746808 +/- 0.0111           Peri.   29.32704 +/- 0.11
a   2.65780063 +/- 0.0862           Node     5.40712 +/- 0.19
e   0.6406769 +/- 0.0117            Incl.   21.01716 +/- 0.22
P   4.33                   H 20.5   G  0.15   U  9.7  
q 0.95500896 +/- 3.34e-5    Q 4.36059231 +/- 0.183
From 35 observations 2020 Nov. 21-23 (47.0 hr); mean residual 0".34
Residuals in arcseconds: 
201121 G96  .07+  .25-    201121 033  .20+  .38+    201121 204  .30+  .16+    
201121 G96  .04-  .01-    201121 033  .02+  .51+    201121 204  .40+  .26-    
201121 G96  .17-  .27+    201121 587  .15+  .30-    201122 I52  .02-  .06-    
201121 G96  .21-  .07-    201121 587  .25+  .60-    201122 I52  .56-  .46-    
201121 I52  .41-  .32+    201121 587  .26-  .59-    201122 I52  .09+  .24+    
201121 I52  .53-  .02+    201121 L01  .36+  .21+    201122 I93  .12+  .13+    
201121 I52  .27+  .53+    201121 L01  .45-  .11-    201122 I93  .22+  .14+    
201121 I52  .69+  .25-    201121 L01  .05-  .01+    201122 I93  .19-  .19+    
201121 I52  .28-  .29-    201121 L01  .13+  .21-    201123 H36  .09-  .56-    
201121 I52  .07+  .32-    201121 033  .03+  .72+    201123 H36  .09-  .43+    
201121 033  .45-  .72+    201121 033  .31+  .50+    201123 H36  .19-  .19-    
201121 033  .53-  .37+    201121 L01  .35+  .62-    

Ephemerides (geocentric):
Date (UTC) HH   RA              Dec         delta   r     elong  mag " sig PA
---- -- -- --  -------------   -----------  ------ ------ -----  --- ---- ---
2020 11 23 01  18 58 37.545   +49 56 43.53  .29563 .98620  81.1 20.6 .128 100
2020 11 23 02  18 58 35.784   +50 00 00.55  .29579 .98635  81.2 20.6 .118 106
2020 11 23 03  18 58 34.020   +50 03 17.35  .29595 .98649  81.2 20.6 .109 113
2020 11 23 04  18 58 32.254   +50 06 33.93  .29611 .98664  81.2 20.6 .102 122
2020 11 23 05  18 58 30.486   +50 09 50.30  .29627 .98678  81.2 20.6 .097 132
2020 11 23 06  18 58 28.716   +50 13 06.45  .29644 .98693  81.3 20.6 .096 143
2020 11 23 07  18 58 26.943   +50 16 22.38  .29660 .98707  81.3 20.6 .099 154
2020 11 23 08  18 58 25.168   +50 19 38.10  .29676 .98722  81.3 20.6 .105 165
2020 11 23 09  18 58 23.390   +50 22 53.61  .29692 .98737  81.3 20.6 .115 174
2020 11 23 10  18 58 21.611   +50 26 08.90  .29709 .98752  81.4 20.6 .128   2
2020 11 23 11  18 58 19.829   +50 29 23.97  .29725 .98766  81.4 20.6 .143   9
2020 11 23 12  18 58 18.045   +50 32 38.83  .29741 .98781  81.4 20.6 .160  14
2020 11 23 13  18 58 16.258   +50 35 53.48  .29757 .98796  81.4 20.6 .179  19
2020 11 23 14  18 58 14.469   +50 39 07.91  .29774 .98811  81.5 20.6 .200  22
2020 11 23 15  18 58 12.678   +50 42 22.13  .29790 .98826  81.5 20.6 .221  25
2020 11 23 16  18 58 10.885   +50 45 36.14  .29806 .98841  81.5 20.6 .244  28
2020 11 23 17  18 58 09.089   +50 48 49.93  .29823 .98855  81.6 20.6 .267  30
2020 11 23 18  18 58 07.292   +50 52 03.52  .29839 .98870  81.6 20.6 .292  32
2020 11 23 19  18 58 05.492   +50 55 16.89  .29855 .98885  81.6 20.6 .317  33
2020 11 23 20  18 58 03.689   +50 58 30.05  .29872 .98901  81.6 20.6 .343  34
2020 11 23 21  18 58 01.885   +51 01 42.99  .29888 .98916  81.7 20.6 .369  36
2020 11 23 22  18 58 00.078   +51 04 55.73  .29905 .98931  81.7 20.6 .397  37
2020 11 23 23  18 57 58.269   +51 08 08.26  .29921 .98946  81.7 20.6 .425  37
2020 11 24 00  18 57 56.458   +51 11 20.57  .29937 .98961  81.7 20.6 .453  38
2020 11 24 01  18 57 54.644   +51 14 32.68  .29954 .98976  81.8 20.6 .483  39
2020 11 24 02  18 57 52.829   +51 17 44.57  .29970 .98991  81.8 20.6 .513  40
2020 11 24 03  18 57 51.011   +51 20 56.26  .29987 0.9901  81.8 20.6 .544  40
2020 11 24 04  18 57 49.191   +51 24 07.74  .30003 0.9902  81.8 20.6 .575  41
2020 11 24 05  18 57 47.369   +51 27 19.01  .30020 0.9904  81.9 20.6 .607  41
2020 11 24 06  18 57 45.544   +51 30 30.07  .30036 0.9905  81.9 20.6 .639  42
2020 11 24 07  18 57 43.718   +51 33 40.92  .30053 0.9907  81.9 20.6 .672  42
2020 11 24 08  18 57 41.889   +51 36 51.56  .30069 0.9908  81.9 20.6 .706  42
2020 11 24 09  18 57 40.058   +51 40 02.00  .30085 0.9910  82.0 20.6 .741  43
2020 11 24 10  18 57 38.225   +51 43 12.23  .30102 0.9911  82.0 20.6 .776  43
2020 11 24 11  18 57 36.390   +51 46 22.25  .30119 0.9913  82.0 20.6 .811  43
2020 11 24 12  18 57 34.552   +51 49 32.07  .30135 0.9915  82.0 20.6 .847  44
2020 11 24 13  18 57 32.713   +51 52 41.68  .30152 0.9916  82.1 20.6 .884  44
2020 11 24 14  18 57 30.871   +51 55 51.09  .30168 0.9918  82.1 20.6 .922  44
2020 11 24 15  18 57 29.028   +51 59 00.29  .30185 0.9919  82.1 20.6 .959  44
2020 11 24 16  18 57 27.182   +52 02 09.28  .30201 0.9921  82.1 20.6 1.00  44
2020 11 24 17  18 57 25.334   +52 05 18.07  .30218 0.9922  82.2 20.6 1.04  45
2020 11 24 18  18 57 23.483   +52 08 26.66  .30234 0.9924  82.2 20.6 1.08  45
2020 11 24 19  18 57 21.631   +52 11 35.04  .30251 0.9925  82.2 20.6 1.12  45
2020 11 24 20  18 57 19.777   +52 14 43.22  .30268 0.9927  82.3 20.6 1.16  45
2020 11 24 21  18 57 17.920   +52 17 51.20  .30284 0.9929  82.3 20.6 1.20  45
2020 11 24 22  18 57 16.062   +52 20 58.97  .30301 0.9930  82.3 20.6 1.24  45
2020 11 24 23  18 57 14.201   +52 24 06.54  .30318 0.9932  82.3 20.6 1.28  45
2020 11 25 00  18 57 12.339   +52 27 13.90  .30334 0.9933  82.4 20.6 1.33  46